User: anonymous   Login
Location: Seattle
(47.6064°N, 122.3308°W)
Time: 10:18:33
(UTC-07:00)
Language:

A-11 Canister half - Orbit

View from above orbital plane
View from above orbital plane
View from above satellite
View from above satellite

Ground track
Ground track

The orbit data is extracted from the following two-line orbital elements,

1 00053U 60009E   21125.90189381 -.00000079  00000-0  50633-4 0  9991
2 00053  47.2788 344.6046 0098259 314.8559  44.4280 12.17254132707847
Epoch (UTC): 05 May 2021 21:38:43
Eccentricity: 0.0098259
inclination: 47.2788°
perigee height: 1526 km
apogee height: 1683 km
right ascension of ascending node: 344.6046°
argument of perigee: 314.8559°
revolutions per day: 12.17254132
mean anomaly at epoch: 44.4280°
orbit number at epoch: 70784

The dashed part of the orbit path shows where the satellite is in the earth's shadow,  

DLR